EA7NW Cordoba ES current weather conditions

sailwx.info

Wind from 225

Air temperature 5.6° C
Dewpoint 2.4° C

Last reported at 2015-Feb-01 04:15 UTC.
Time now 2015-Feb-01 05:43 UTC

Location: N 37°53' W 004°48'.
View on Google Maps.

See reports from other nearby stations

  
Tides and Currents Weather Stations Pressure Air Temp Water Temp Dewpoint Dewpoint Depression Visibility Wind Speed Wind Dir Waves Ship Positions
date/time (UTC)wind fromknots sea level pressurealtimeterstation pressurevisibilityair tempwater tempwave heightnotes
2015-Feb-01 04:15 225 5.6
2015-Feb-01 04:00 6.1
2015-Feb-01 03:45 6.1
2015-Feb-01 03:30 095 0 gusting 6 6.1
2015-Feb-01 03:00 6.7
2015-Feb-01 02:45 7.2
2015-Feb-01 02:30 027 2 gusting 12 7.2
2015-Feb-01 02:15 7.2
2015-Feb-01 02:00 045 3 gusting 10 7.8
2015-Feb-01 01:30 315 4 gusting 13 7.8
2015-Feb-01 01:15 072 5 gusting 11 7.8
2015-Feb-01 01:00 308 5 gusting 11 7.2
2015-Feb-01 00:30 047 5 gusting 13 7.8
2015-Feb-01 00:15 315 4 gusting 8 7.8
2015-Feb-01 00:00 045 3 gusting 10 8.3
2015-Jan-31 23:45 8.3
2015-Jan-31 23:30 045 3 gusting 12 8.9
2015-Jan-31 22:45 090 6 gusting 19 9.4
2015-Jan-31 22:30 162 8 gusting 17 10.0
2015-Jan-31 22:15 045 4 gusting 14 10.0
2015-Jan-31 21:45 090 6 gusting 13 10.0
2015-Jan-31 21:30 090 5 gusting 13 10.6
2015-Jan-31 21:15 069 1 gusting 11 10.6
2015-Jan-31 20:45 061 5 gusting 12 10.6
2015-Jan-31 20:15 053 5 gusting 17 11.1
2015-Jan-31 19:45 045 2 gusting 8 10.6
2015-Jan-31 19:15 045 1 gusting 8 11.1
2015-Jan-31 19:00 090 4 gusting 10 11.1
2015-Jan-31 18:45 090 4 gusting 11 11.7
2015-Jan-31 18:30 045 3 gusting 10 12.2
2015-Jan-31 18:15 090 4 gusting 13 12.8
2015-Jan-31 18:00 088 4 gusting 17 12.8
2015-Jan-31 17:45 045 4 gusting 17 12.8
2015-Jan-31 17:30 090 6 gusting 18 12.8
2015-Jan-31 17:15 063 8 gusting 18 12.8
2015-Jan-31 17:00 086 7 gusting 17 13.9
2015-Jan-31 16:30 118 10 gusting 19 15.0
2015-Jan-31 16:00 081 9 gusting 19 15.6
2015-Jan-31 15:45 082 11 gusting 26 15.6
2015-Jan-31 15:30 111 6 gusting 19 15.0
2015-Jan-31 14:45 106 7 gusting 22 16.1
2015-Jan-31 14:30 118 8 gusting 21 16.1
2015-Jan-31 14:15 118 7 gusting 19 15.6
2015-Jan-31 13:30 090 8 gusting 26 15.6
2015-Jan-31 13:15 096 5 gusting 15 15.6
2015-Jan-31 13:00 049 7 gusting 18 15.6
2015-Jan-31 12:45 045 6 gusting 19 15.6
2015-Jan-31 12:30 15.6
2015-Jan-31 12:15 090 6 gusting 17 15.6
2015-Jan-31 12:00 088 6 gusting 14 15.6
2015-Jan-31 11:45 066 5 gusting 17 15.6
2015-Jan-31 10:45 093 10 gusting 26 15.0
2015-Jan-31 10:00 115 7 gusting 28 14.4
2015-Jan-31 09:45 016 11 gusting 26 14.4
2015-Jan-31 09:30 090 10 gusting 24 14.4
2015-Jan-31 09:00 069 4 gusting 22 13.3
2015-Jan-31 08:45 108 5 gusting 25 13.9
2015-Jan-31 08:15 066 12 gusting 25 13.3
2015-Jan-31 07:45 045 13 gusting 30 13.3
2015-Jan-31 07:30 077 10 gusting 26 13.3
2015-Jan-31 07:15 045 8 gusting 20 13.3
2015-Jan-31 07:00 050 8 gusting 25 12.8
2015-Jan-31 06:45 045 11 gusting 25 12.8
2015-Jan-31 06:30 045 13 gusting 25 12.8
2015-Jan-31 06:15 090 13 gusting 21 14.4
2015-Jan-31 05:00 090 11 gusting 25 13.3
2015-Jan-31 04:15 090 14 gusting 28 13.3
2015-Jan-31 04:00 069 11 gusting 27 13.9
2015-Jan-31 03:45 109 10 gusting 28 13.9
2015-Jan-31 03:30 090 14 gusting 26 13.9
2015-Jan-31 03:15 045 9 gusting 27 14.4
2015-Jan-31 03:00 045 11 gusting 22 14.4
2015-Jan-31 02:30 060 12 gusting 26 14.4
2015-Jan-31 02:15 074 10 gusting 25 13.9
2015-Jan-31 02:00 075 12 gusting 25 13.9
2015-Jan-31 01:15 081 8 gusting 22 14.4
2015-Jan-31 01:00 045 13 gusting 21 14.4
2015-Jan-31 00:45 045 9 gusting 24 14.4
2015-Jan-31 00:15 045 12 gusting 19 14.4
2015-Jan-30 23:45 355 13 gusting 26 14.4
2015-Jan-30 23:30 045 9 gusting 22 14.4
2015-Jan-30 23:00 021 9 gusting 22 14.4
2015-Jan-30 22:15 082 11 gusting 19 14.4
2015-Jan-30 21:45 059 10 gusting 22 14.4
2015-Jan-30 21:30 075 8 gusting 19 14.4
2015-Jan-30 21:15 045 10 gusting 18 15.0
2015-Jan-30 20:15 045 7 gusting 22 15.0
2015-Jan-30 20:00 225 8 gusting 19 15.0
2015-Jan-30 19:30 045 8 gusting 19 15.0
2015-Jan-30 19:15 060 11 gusting 25 15.6
2015-Jan-30 19:00 045 8 gusting 21 15.6
2015-Jan-30 18:45 077 7 gusting 19 16.1
2015-Jan-30 18:15 090 9 gusting 18 16.1
2015-Jan-30 17:30 075 10 gusting 21 16.1
2015-Jan-30 17:00 16.1
2015-Jan-30 16:30 075 6 gusting 19 16.1
2015-Jan-30 16:15 047 9 gusting 19 16.7
2015-Jan-30 16:00 045 10 gusting 21 17.2
2015-Jan-30 15:45 030 8 gusting 19 16.7
2015-Jan-30 15:30 067 9 gusting 21 18.3
2015-Jan-30 15:15 078 8 gusting 19 18.3
2015-Jan-30 15:00 18.9
2015-Jan-30 14:45 045 6 gusting 19 18.9
2015-Jan-30 14:15 090 6 gusting 17 19.4
2015-Jan-30 14:00 045 10 gusting 22 20.0
2015-Jan-30 13:45 045 7 gusting 25 20.0
2015-Jan-30 13:00 055 9 gusting 18 18.3
2015-Jan-30 12:45 038 4 gusting 17 17.8
2015-Jan-30 12:30 17.8
2015-Jan-30 12:15 045 6 gusting 17 17.2
2015-Jan-30 12:00 045 8 gusting 19 17.2
2015-Jan-30 11:45 052 6 gusting 18 16.7
2015-Jan-30 11:00 084 6 gusting 13 15.0
2015-Jan-30 10:45 045 6 gusting 13 13.9
2015-Jan-30 10:15 045 6 gusting 13 12.8
2015-Jan-30 09:00 12.2
2015-Jan-30 08:45 12.2
2015-Jan-30 08:30 009 2 gusting 10 12.2
2015-Jan-30 08:00 056 5 gusting 12 11.7
2015-Jan-30 07:15 045 4 gusting 12 11.7
2015-Jan-30 07:00 12.2
2015-Jan-30 06:30 11.7